SCP
0 0 0 0 0 -0 -0 -0 0 0 0 0 0 0 0 0 0 0 0 0 0 0 0 0 0 0 0 0 0 0 0 0 0 0 0 0 0 0 0 0 0 0 0
0 0 0 0 0 -0 -0 -0 0 0 0 0 0 0 0 0 0 0 0 0 0 0 0 0 0 0 0 0 0 0 0 0 0 0 0 -0 -0 0 0 0 0 0 0
0 0 0 0 0 -0 -0 -0 0 0 0 0 0 0 0 0 0 0 0 0 0 0 0 0 0 0 0 0 0 0 0 0 0 0 0 0 0 0 0 0 0 0 0
0 0 0 0 0 0 -0 -0 0 0 0 0 0 0 0 0 0 0 0 0 0 0 0 0 0 0 0 0 0 0 0 0 0 0 0 0 0 0 0 0 0 0 0
1 1 0 0 0 -0 -0 0 0 0 0 0 0 0 0 0 0 0 0 0 0 0 0 0 0 0 0 0 0 0 0 0 0 0 0 0 0 0 0 0 0 0 0
1 0 0 0 0 0 0 0 0 0 0 0 0 0 0 0 0 0 0 0 0 0 0 0 0 0 0 0 0 0 0 0 0 0 0 0 0 0 0 0 0 0 0
0 0 0 0 0 0 0 0 0 0 0 0 0 0 0 0 0 0 0 0 0 0 0 0 0 0 0 0 0 0 0 0 0 0 0 0 0 0 0 0 0 0 0
0 0 0 0 0 0 0 0 0 0 0 0 0 0 0 0 0 0 0 0 0 0 0 0 0 0 0 0 0 0 0 0 0 0 0 0 0 0 0 0 0 0 0
0 0 0 0 0 0 0 0 0 0 0 0 0 0 0 0 0 0 0 0 0 0 0 0 0 0 0 0 0 0 0 0 0 0 0 0 0 0 0 0 0 0 0
0 0 0 0 0 0 0 0 0 0 0 0 0 0 0 0 0 0 0 0 0 0 0 0 0 0 0 0 0 0 0 0 0 0 0 0 0 0 0 0 0 0 0
0 0 0 0 0 0 0 0 0 0 0 0 0 0 0 0 0 0 0 0 0 0 0 0 0 0 0 0 0 0 0 0 0 0 0 0 0 0 0 0 0 0 0
0 0 0 0 0 0 0 0 0 0 0 0 0 0 0 0 0 0 0 0 0 0 0 0 0 0 0 0 0 0 0 0 0 0 0 0 0 0 0 0 0 0 0
0 0 0 0 0 0 0 0 0 0 0 0 0 0 0 0 0 0 0 0 0 0 0 0 0 0 0 0 0 0 0 0 0 0 0 0 0 0 0 0 0 0 0
0 0 0 0 0 0 0 0 0 0 0 0 0 0 0 0 0 0 0 0 0 0 0 0 0 0 0 0 0 0 0 0 0 0 0 0 0 0 0 0 0 0 0
0 0 0 0 0 0 0 0 0 0 0 0 0 0 0 0 0 0 0 0 0 0 0 0 0 0 0 0 0 0 0 0 0 0 0 0 0 0 0 0 0 0 0
0 0 0 0 0 0 0 0 0 0 0 0 0 0 0 0 0 0 0 0 0 0 0 0 0 0 0 0 0 0 0 0 0 0 0 0 0 0 0 0 0 0 0
0 0 0 0 0 0 0 0 0 0 0 0 0 0 0 0 0 0 0 0 0 0 0 0 0 0 0 0 0 0 0 0 0 0 0 0 0 0 0 0 0 0 0
0 0 0 0 0 0 0 0 0 0 0 0 0 0 0 0 0 0 0 0 0 0 0 0 0 0 0 0 0 0 0 0 0 0 0 0 0 0 0 0 0 0 0
0 0 0 0 0 0 0 0 0 0 0 0 0 0 0 0 0 0 0 0 0 0 0 0 0 0 0 0 0 0 0 0 0 0 0 0 0 0 0 0 0 0 0
0 0 0 0 0 0 0 0 0 0 0 0 0 0 0 0 0 0 0 0 0 0 0 0 0 0 0 0 0 0 0 0 0 0 0 0 0 0 0 0 0 0 0
0 0 0 0 0 0 0 0 0 0 0 0 0 0 0 0 0 0 0 0 0 0 0 0 0 0 0 0 0 0 0 0 0 0 0 0 0 0 0 0 0 0 0
0 0 0 0 0 0 0 0 0 0 0 0 0 0 0 0 0 0 0 0 0 0 0 0 0 0 0 0 0 0 0 0 0 0 0 0 0 0 0 0 0 0 0
0 0 0 0 0 0 0 0 0 0 0 0 0 0 0 0 0 0 0 0 0 0 0 0 0 0 0 0 0 0 0 0 0 0 0 0 0 0 0 0 0 0 0
0 0 0 0 0 0 0 0 0 0 0 0 0 0 0 0 0 0 0 0 0 0 0 0 0 0 0 0 0 0 0 0 0 -0 -0 -0 -0 0 0 0 0 0 0
0 0 0 0 0 0 0 0 0 0 0 0 0 0 0 0 0 0 0 0 0 0 0 0 0 0 0 0 0 0 0 0 -0 -0 -0 -0 -0 0 0 0 0 0 0
0 0 0 0 0 0 0 0 0 0 0 0 0 0 0 0 0 0 0 0 0 0 0 0 0 0 0 0 0 0 0 0 0 0 -0 -0 -0 0 0 0 0 0 0
Wind_Speed
7 7 5 4 4 4 1 3 7 6 6 5 5 5 5 4 6 6 7 7 7 7 6 5 5 5 5 5 5 2 4 5 4 3 4 4 3 1 2 3 2 1 1
7 7 5 6 6 4 5 7 8 7 5 5 4 5 4 4 4 5 7 7 7 7 7 6 5 5 4 5 5 5 3 3 4 3 4 4 4 2 6 6 4 4 4
8 8 7 9 8 7 8 8 9 9 7 6 6 6 5 4 4 4 4 6 7 7 6 5 4 3 3 3 3 3 3 2 2 1 2 3 5 5 4 4 3 4 5
7 10 12 12 10 10 10 11 11 10 8 7 7 6 4 3 3 2 3 4 6 6 5 5 4 4 3 3 3 4 3 2 3 3 2 3 4 5 5 3 6 6 7
9 11 13 13 13 12 12 12 13 11 9 8 7 6 6 4 3 2 4 3 3 3 3 3 3 3 3 3 3 3 3 2 2 2 3 3 3 4 5 8 8 8 7
12 14 15 15 13 12 11 11 13 12 9 9 8 7 6 4 3 2 1 1 1 2 2 3 2 2 2 2 3 3 3 2 2 2 2 2 3 5 5 8 11 11 8
14 16 16 14 11 10 10 9 11 9 6 7 7 5 5 4 2 1 0 0 1 1 2 1 1 1 0 0 0 1 1 2 2 3 3 4 6 6 7 9 9 10 9
15 16 15 13 10 9 9 8 9 7 4 5 5 4 3 2 1 1 2 2 2 2 2 2 1 1 1 2 1 1 2 3 3 5 5 6 8 7 6 7 8 11 10
16 16 14 10 9 9 7 7 8 5 3 4 4 3 3 3 2 2 3 2 2 2 2 3 2 2 3 3 3 2 3 3 4 5 6 7 8 6 6 6 7 8 9
16 14 11 10 9 8 8 8 9 9 7 4 4 4 3 1 0 2 2 3 3 2 3 4 3 3 5 6 5 4 5 5 5 4 7 8 7 7 7 7 6 7 8
15 12 9 9 10 9 8 7 5 6 6 4 3 1 1 0 2 3 4 4 3 4 4 5 5 4 7 7 6 7 7 7 7 7 8 10 10 9 8 7 6 6 7
14 11 9 6 6 6 5 5 3 3 4 2 1 1 1 1 2 4 5 4 4 5 6 5 5 6 8 8 7 8 8 7 8 9 9 11 10 11 10 8 8 7 7
14 10 9 7 4 4 5 2 2 2 2 1 3 3 2 1 3 5 5 5 4 5 7 6 7 7 7 7 8 7 7 6 7 8 10 12 12 12 10 9 9 8 7
13 11 8 6 5 5 4 3 2 2 2 2 3 3 3 3 4 5 5 5 5 7 8 8 7 7 5 5 6 4 4 5 7 9 11 12 12 12 12 10 10 8 7
12 10 7 6 6 5 4 4 3 2 1 2 4 4 4 5 6 6 5 5 6 8 8 7 6 5 4 4 2 1 3 6 9 11 11 11 15 18 15 11 9 7 7
14 12 9 6 5 5 4 3 3 3 3 5 5 4 5 6 7 7 5 5 7 7 4 4 4 5 3 4 5 4 4 7 9 10 11 12 14 15 16 17 15 13 11
14 12 11 8 6 4 3 4 3 3 4 5 5 4 5 7 7 7 6 5 6 6 6 5 5 4 3 4 7 10 6 7 8 10 11 10 11 12 11 13 15 16 17
12 11 8 6 5 3 3 2 2 4 4 4 5 5 5 5 4 4 5 5 5 5 4 5 6 6 6 10 11 14 8 8 10 11 10 10 12 12 12 10 11 11 12
8 7 7 5 5 5 3 2 2 3 4 5 5 5 4 3 5 5 5 5 4 4 4 4 5 6 8 12 14 13 8 9 10 11 10 11 10 13 15 12 11 11 10
6 5 6 3 5 4 2 1 2 3 4 4 3 3 4 6 6 5 4 4 4 4 6 6 6 7 8 11 14 15 8 9 9 9 10 14 14 16 16 11 9 9 10
7 3 5 6 4 3 2 0 2 3 3 2 4 6 6 6 5 4 4 4 5 6 6 6 6 6 8 11 16 17 10 8 8 8 8 9 15 16 14 10 8 9 9
9 6 5 4 2 2 1 1 3 3 2 5 6 5 5 5 4 4 4 5 5 7 8 7 6 6 7 11 16 18 15 14 8 8 7 8 14 15 12 10 10 9 3
6 4 5 3 2 1 1 2 3 3 5 6 6 4 5 5 4 4 4 4 5 6 7 7 8 8 8 9 15 16 16 17 11 9 13 14 13 11 9 11 10 5 4
4 4 4 2 1 1 1 1 2 5 6 6 5 5 5 5 5 4 4 4 5 6 7 7 7 7 8 8 9 9 10 13 11 11 12 14 11 10 11 9 7 5 7
3 4 4 3 0 2 2 2 4 6 7 6 6 4 5 5 5 5 4 4 3 4 6 6 5 7 8 11 14 12 10 9 11 11 7 7 8 8 8 7 7 7 8
4 4 4 2 2 3 4 4 5 6 7 6 4 4 4 5 5 5 5 4 3 4 7 10 8 7 9 15 16 17 16 15 15 8 7 8 9 8 7 7 7 7 8
Wind_Direction
125 116 127 94 53 38 68 102 100 94 98 95 89 83 74 62 60 54 47 46 46 41 41 39 37 40 48 33 27 48 49 22 1 356 320 295 289 146 6 355 346 333 318
119 117 106 67 59 63 72 74 72 73 66 75 82 88 87 75 67 53 41 41 48 45 47 42 42 43 46 40 32 28 15 359 14 12 320 319 314 337 329 322 315 324 328
148 126 96 87 83 67 59 61 59 63 58 66 83 84 81 67 43 36 36 38 55 56 53 49 45 45 51 47 33 26 20 336 332 315 285 307 298 319 284 291 315 311 309
135 120 112 100 90 83 75 69 62 56 54 58 75 75 74 86 66 66 80 55 48 48 42 37 34 32 29 34 25 27 15 359 331 317 309 303 297 300 310 314 306 297 298
137 119 111 99 86 76 71 70 68 58 51 56 71 82 85 84 90 81 83 73 53 44 42 48 53 46 30 30 31 26 16 7 326 320 318 311 299 280 292 298 297 288 284
128 112 100 93 83 76 73 68 66 51 45 54 61 76 87 83 82 78 76 43 12 10 20 40 52 51 29 8 18 11 4 2 345 337 325 303 305 312 298 294 299 295 287
124 116 109 101 97 91 85 80 82 72 63 72 74 81 92 99 113 146 142 184 286 300 330 7 55 92 62 296 304 338 325 331 327 321 303 286 278 275 276 283 285 284 291
128 124 123 125 122 108 96 97 100 98 98 99 98 97 105 125 146 210 212 211 222 240 253 248 218 195 212 238 254 300 286 292 307 305 296 290 286 279 272 273 283 291 290
130 130 133 132 124 115 114 120 118 130 138 122 125 139 152 156 151 212 231 234 241 242 246 262 280 285 277 276 269 256 266 280 288 295 299 297 288 277 269 262 258 267 285
130 135 142 137 129 134 146 148 162 166 155 161 157 163 136 119 199 277 284 268 261 260 282 284 289 294 278 269 265 272 277 282 286 296 302 299 298 294 279 259 248 239 254
142 142 145 143 144 150 146 138 162 144 147 161 181 113 55 286 274 270 272 274 298 303 280 259 256 272 275 268 259 261 269 276 292 298 300 298 301 295 285 265 252 246 246
145 144 138 136 143 136 127 127 158 135 131 171 197 236 289 358 303 275 271 277 288 289 281 276 269 275 276 271 259 267 276 283 290 296 301 299 298 291 285 275 270 261 252
146 142 141 143 129 89 77 72 101 147 177 215 254 272 303 303 270 275 287 295 290 285 284 278 267 266 273 274 268 264 271 279 289 294 296 294 290 282 280 277 275 270 261
152 154 151 129 103 102 133 170 179 214 218 250 283 291 281 267 267 275 280 282 274 267 268 263 264 277 295 292 288 287 283 292 298 296 291 286 280 275 272 272 274 280 277
151 146 140 129 135 153 184 172 183 220 243 262 259 259 269 274 272 272 287 304 282 265 270 287 297 304 307 316 335 333 309 305 303 299 295 290 289 288 282 282 282 282 280
154 149 140 147 160 168 179 178 206 242 248 246 248 263 283 290 294 302 310 303 296 297 302 304 322 325 344 43 11 339 310 302 300 300 298 296 298 296 295 297 300 297 292
150 142 143 165 169 166 169 174 217 261 259 257 277 290 297 294 293 307 319 319 327 2 20 16 14 5 333 334 325 321 309 295 297 295 292 297 299 297 289 290 298 296 284
135 137 146 150 139 151 163 180 237 260 274 284 296 302 300 303 329 3 11 17 26 30 21 11 6 352 327 316 320 329 315 299 295 292 289 291 292 289 288 293 291 284 276
116 132 130 138 144 155 174 227 278 292 296 306 313 321 337 3 34 40 33 28 18 13 356 353 351 345 333 330 333 331 314 304 298 296 296 292 292 294 295 294 290 285 284
65 92 110 134 144 171 184 248 289 307 321 322 335 17 50 64 61 49 43 29 19 5 355 347 336 336 332 329 325 321 312 305 305 303 302 303 301 301 302 301 292 289 294
120 161 145 146 159 177 193 223 313 324 313 350 84 78 73 76 72 59 48 31 18 4 347 332 321 333 334 326 320 322 323 312 306 305 304 302 303 307 309 305 292 281 287
149 177 137 130 168 205 160 29 343 334 42 83 83 78 73 68 60 58 47 35 23 7 348 337 335 338 327 327 329 332 329 327 317 306 303 307 315 318 321 316 306 297 289
140 142 134 156 216 239 94 20 351 53 90 86 82 76 59 45 38 36 20 8 4 2 351 346 342 339 333 336 337 334 334 338 334 321 327 328 325 336 339 334 344 16 62
142 145 138 118 25 26 73 322 49 96 96 91 80 57 38 24 18 9 359 351 352 358 358 348 340 337 333 336 339 338 338 340 336 330 331 336 350 1 355 353 10 51 73
130 127 129 132 254 7 18 64 112 105 96 90 73 51 35 29 16 5 355 356 8 20 12 351 338 332 332 334 336 340 343 343 339 334 338 357 8 10 7 16 44 58 67
114 108 96 86 42 58 82 95 101 108 106 93 75 53 40 29 21 9 359 356 357 354 12 1 348 335 329 334 342 345 344 346 345 347 351 5 15 17 13 26 55 62 71